Time,TemperatureF,DewpointF,PressureIn,WindDirection,WindDirectionDegrees,WindSpeedMPH,WindSpeedGustMPH,Humidity,HourlyPrecipIn,Conditions,Clouds,dailyrainin,SoftwareType,DateUTC
2013-05-30 00:32:00,57.0,53.0,-100.00,East,80,2.0,-999.0,86,-99.99,,,-99.99,,2013-05-30 06:32:00,
2013-05-30 00:42:00,57.0,53.0,-100.00,East,80,2.0,-999.0,86,-99.99,,,-99.99,,2013-05-30 06:42:00,
2013-05-30 00:52:00,57.0,53.0,-100.00,East,80,2.0,-999.0,86,-99.99,,,-99.99,,2013-05-30 06:52:00,
2013-05-30 01:32:00,57.0,52.0,-100.00,East,80,3.0,-999.0,83,-99.99,,,-99.99,,2013-05-30 07:32:00,
2013-05-30 01:42:00,57.0,52.0,-100.00,East,80,3.0,-999.0,83,-99.99,,,-99.99,,2013-05-30 07:42:00,
2013-05-30 01:52:00,57.0,52.0,-100.00,East,80,3.0,-999.0,83,-99.99,,,-99.99,,2013-05-30 07:52:00,
2013-05-30 02:32:00,56.0,54.0,-100.00,ENE,60,7.0,-999.0,93,-99.99,,,-99.99,,2013-05-30 08:32:00,
2013-05-30 02:42:00,56.0,54.0,-100.00,ENE,60,7.0,-999.0,93,-99.99,,,-99.99,,2013-05-30 08:42:00,
2013-05-30 02:52:00,56.0,54.0,-100.00,ENE,60,7.0,-999.0,93,-99.99,,,-99.99,,2013-05-30 08:52:00,
2013-05-30 03:33:00,55.0,52.0,-100.00,NNE,30,5.0,-999.0,89,-99.99,,,-99.99,,2013-05-30 09:33:00,
2013-05-30 03:42:00,55.0,52.0,-100.00,NNE,30,5.0,-999.0,89,-99.99,,,-99.99,,2013-05-30 09:42:00,
2013-05-30 03:53:00,55.0,52.0,-100.00,NNE,30,5.0,-999.0,89,-99.99,,,-99.99,,2013-05-30 09:53:00,
2013-05-30 04:32:00,54.0,52.0,-100.00,NNE,20,6.0,-999.0,93,-99.99,,,-99.99,,2013-05-30 10:32:00,
2013-05-30 04:42:00,54.0,52.0,-100.00,NNE,20,6.0,-999.0,93,-99.99,,,-99.99,,2013-05-30 10:42:00,
2013-05-30 04:52:00,54.0,52.0,-100.00,NNE,20,6.0,-999.0,93,-99.99,,,-99.99,,2013-05-30 10:52:00,
2013-05-30 05:32:00,55.0,53.0,-100.00,NE,50,12.0,-999.0,93,-99.99,,,-99.99,,2013-05-30 11:32:00,
2013-05-30 05:42:00,55.0,53.0,-100.00,NE,50,12.0,-999.0,93,-99.99,,,-99.99,,2013-05-30 11:42:00,
2013-05-30 05:52:00,55.0,53.0,-100.00,NE,50,12.0,-999.0,93,-99.99,,,-99.99,,2013-05-30 11:52:00,
2013-05-30 06:32:00,54.0,52.0,-100.00,NE,50,15.0,-999.0,93,-99.99,,,-99.99,,2013-05-30 12:32:00,
2013-05-30 06:42:00,54.0,52.0,-100.00,NE,50,15.0,-999.0,93,-99.99,,,-99.99,,2013-05-30 12:42:00,
2013-05-30 06:52:00,54.0,52.0,-100.00,NE,50,15.0,-999.0,93,-99.99,,,-99.99,,2013-05-30 12:52:00,
2013-05-30 07:32:00,54.0,52.0,-100.00,NE,40,16.0,-999.0,93,-99.99,,,-99.99,,2013-05-30 13:32:00,
2013-05-30 07:42:00,54.0,52.0,-100.00,NE,40,16.0,-999.0,93,-99.99,,,-99.99,,2013-05-30 13:42:00,
2013-05-30 07:52:00,54.0,52.0,-100.00,NE,40,16.0,-999.0,93,-99.99,,,-99.99,,2013-05-30 13:52:00,
2013-05-30 08:32:00,53.0,50.0,-100.00,NE,50,15.0,-999.0,89,-99.99,,,-99.99,,2013-05-30 14:32:00,
2013-05-30 08:42:00,53.0,50.0,-100.00,NE,50,15.0,-999.0,89,-99.99,,,-99.99,,2013-05-30 14:42:00,
2013-05-30 08:52:00,53.0,50.0,-100.00,NE,50,15.0,-999.0,89,-99.99,,,-99.99,,2013-05-30 14:52:00,
2013-05-30 09:33:00,52.0,48.0,-100.00,NE,50,17.0,-999.0,86,-99.99,,,-99.99,,2013-05-30 15:33:00,
2013-05-30 09:42:00,52.0,48.0,-100.00,NE,50,17.0,-999.0,86,-99.99,,,-99.99,,2013-05-30 15:42:00,
2013-05-30 09:52:00,52.0,48.0,-100.00,NE,50,17.0,-999.0,86,-99.99,,,-99.99,,2013-05-30 15:52:00,
2013-05-30 10:33:00,53.0,48.0,-100.00,NNE,30,13.0,21.0,82,-99.99,,,-99.99,,2013-05-30 16:33:00,
2013-05-30 10:42:00,53.0,48.0,-100.00,NNE,30,13.0,21.0,82,-99.99,,,-99.99,,2013-05-30 16:42:00,
2013-05-30 10:52:00,53.0,48.0,-100.00,NNE,30,13.0,21.0,82,-99.99,,,-99.99,,2013-05-30 16:52:00,
2013-05-30 11:32:00,54.0,49.0,-100.00,NNE,30,12.0,-999.0,83,-99.99,,,-99.99,,2013-05-30 17:32:00,
2013-05-30 11:42:00,54.0,49.0,-100.00,NNE,30,12.0,-999.0,83,-99.99,,,-99.99,,2013-05-30 17:42:00,
2013-05-30 11:52:00,54.0,49.0,-100.00,NNE,30,12.0,-999.0,83,-99.99,,,-99.99,,2013-05-30 17:52:00,
2013-05-30 12:32:00,54.0,49.0,-100.00,NNE,30,13.0,-999.0,83,-99.99,,,-99.99,,2013-05-30 18:32:00,
2013-05-30 12:42:00,54.0,49.0,-100.00,NNE,30,13.0,-999.0,83,-99.99,,,-99.99,,2013-05-30 18:42:00,
2013-05-30 12:51:00,54.0,49.0,-100.00,NNE,30,13.0,-999.0,83,-99.99,,,-99.99,,2013-05-30 18:51:00,
2013-05-30 13:32:00,53.0,51.0,-100.00,NNE,30,12.0,20.0,92,-99.99,,,-99.99,,2013-05-30 19:32:00,
2013-05-30 13:42:00,53.0,51.0,-100.00,NNE,30,12.0,20.0,92,-99.99,,,-99.99,,2013-05-30 19:42:00,
2013-05-30 13:52:00,53.0,51.0,-100.00,NNE,30,12.0,20.0,92,-99.99,,,-99.99,,2013-05-30 19:52:00,
2013-05-30 14:33:00,52.0,49.0,-100.00,North,10,12.0,22.0,89,-99.99,,,-99.99,,2013-05-30 20:33:00,
2013-05-30 14:42:00,52.0,49.0,-100.00,North,10,12.0,22.0,89,-99.99,,,-99.99,,2013-05-30 20:42:00,
2013-05-30 14:52:00,52.0,49.0,-100.00,North,10,12.0,22.0,89,-99.99,,,-99.99,,2013-05-30 20:52:00,
2013-05-30 15:33:00,52.0,49.0,-100.00,North,360,10.0,24.0,89,-99.99,,,-99.99,,2013-05-30 21:33:00,
2013-05-30 15:43:00,52.0,49.0,-100.00,North,360,10.0,24.0,89,-99.99,,,-99.99,,2013-05-30 21:43:00,
2013-05-30 15:53:00,52.0,49.0,-100.00,North,360,10.0,24.0,89,-99.99,,,-99.99,,2013-05-30 21:53:00,
2013-05-30 16:33:00,52.0,49.0,-100.00,North,350,10.0,-999.0,89,-99.99,,,-99.99,,2013-05-30 22:33:00,
2013-05-30 16:42:00,52.0,49.0,-100.00,North,350,10.0,-999.0,89,-99.99,,,-99.99,,2013-05-30 22:42:00,
2013-05-30 16:52:00,52.0,49.0,-100.00,North,350,10.0,-999.0,89,-99.99,,,-99.99,,2013-05-30 22:52:00,
2013-05-30 17:32:00,52.0,49.0,-100.00,North,350,10.0,-999.0,89,-99.99,,,-99.99,,2013-05-30 23:32:00,
2013-05-30 17:41:00,52.0,49.0,-100.00,North,350,10.0,-999.0,89,-99.99,,,-99.99,,2013-05-30 23:41:00,
2013-05-30 17:52:00,52.0,49.0,-100.00,North,350,10.0,-999.0,89,-99.99,,,-99.99,,2013-05-30 23:52:00,
2013-05-30 18:22:00,52.0,49.0,-100.00,North,350,12.0,23.0,89,-99.99,,,-99.99,,2013-05-31 00:22:00,
2013-05-30 18:32:00,52.0,49.0,-100.00,North,350,12.0,23.0,89,-99.99,,,-99.99,,2013-05-31 00:32:00,
2013-05-30 18:42:00,52.0,49.0,-100.00,North,350,12.0,23.0,89,-99.99,,,-99.99,,2013-05-31 00:42:00,
2013-05-30 18:52:00,52.0,49.0,-100.00,North,350,12.0,23.0,89,-99.99,,,-99.99,,2013-05-31 00:52:00,
2013-05-30 19:32:00,51.0,49.0,-100.00,NNW,330,12.0,-999.0,92,-99.99,,,-99.99,,2013-05-31 01:32:00,
2013-05-30 19:42:00,51.0,49.0,-100.00,NNW,330,12.0,-999.0,92,-99.99,,,-99.99,,2013-05-31 01:42:00,
2013-05-30 19:52:00,51.0,49.0,-100.00,NNW,330,12.0,-999.0,92,-99.99,,,-99.99,,2013-05-31 01:52:00,
2013-05-30 20:32:00,51.0,49.0,-100.00,NNW,330,13.0,22.0,92,-99.99,,,-99.99,,2013-05-31 02:32:00,
2013-05-30 20:42:00,51.0,49.0,-100.00,NNW,330,13.0,22.0,92,-99.99,,,-99.99,,2013-05-31 02:42:00,
2013-05-30 20:51:00,51.0,49.0,-100.00,NNW,330,13.0,22.0,92,-99.99,,,-99.99,,2013-05-31 02:51:00,
2013-05-30 21:33:00,51.0,49.0,-100.00,North,350,12.0,21.0,92,-99.99,,,-99.99,,2013-05-31 03:33:00,
2013-05-30 21:43:00,51.0,49.0,-100.00,North,350,12.0,21.0,92,-99.99,,,-99.99,,2013-05-31 03:43:00,
2013-05-30 21:53:00,51.0,49.0,-100.00,North,350,12.0,21.0,92,-99.99,,,-99.99,,2013-05-31 03:53:00,
2013-05-30 22:33:00,53.0,51.0,-100.00,SE,140,13.0,23.0,92,-99.99,,,-99.99,,2013-05-31 04:33:00,
2013-05-30 22:42:00,53.0,51.0,-100.00,SE,140,13.0,23.0,92,-99.99,,,-99.99,,2013-05-31 04:42:00,
2013-05-30 22:53:00,53.0,51.0,-100.00,SE,140,13.0,23.0,92,-99.99,,,-99.99,,2013-05-31 04:53:00,
2013-05-30 23:32:00,52.0,50.0,-100.00,North,360,14.0,23.0,92,-99.99,,,-99.99,,2013-05-31 05:32:00,
2013-05-30 23:42:00,52.0,50.0,-100.00,North,360,14.0,23.0,92,-99.99,,,-99.99,,2013-05-31 05:42:00,
2013-05-30 23:52:00,52.0,50.0,-100.00,North,360,14.0,23.0,92,-99.99,,,-99.99,,2013-05-31 05:52:00,